| time (UTC) | temp C | wind direction | speed KPH | gust KPH | rain 1hr cm | rain 24hr cm | rain mn cm | humidity % | barometer mb |
| 20260507160031 | 17 | 316 | 3.2 | 9.7 | 0.00 | 0.00 | 0.00 | 84 | 1017.0 |
| 20260507155504 | 17 | 320 | 1.6 | 9.7 | 0.00 | 0.00 | 0.00 | 84 | 1017.1 |
| 20260507155003 | 17 | 311 | 4.8 | 8.0 | 0.00 | 0.00 | 0.00 | 85 | 1017.0 |
| 20260507154522 | 16 | 353 | 4.8 | 8.0 | 0.00 | 0.00 | 0.00 | 85 | 1017.1 |
| 20260507154011 | 16 | 347 | 1.6 | 8.0 | 0.00 | 0.00 | 0.00 | 85 | 1017.1 |
| 20260507153506 | 16 | 347 | 3.2 | 8.0 | 0.00 | 0.00 | 0.00 | 85 | 1017.1 |
| 20260507153025 | 16 | 347 | 3.2 | 6.4 | 0.00 | 0.00 | 0.00 | 86 | 1017.1 |
| 20260507152508 | 16 | 347 | 3.2 | 6.4 | 0.00 | 0.00 | 0.00 | 86 | 1017.0 |
| 20260507152013 | 16 | 294 | 1.6 | 4.8 | 0.00 | 0.00 | 0.00 | 87 | 1017.0 |
| 20260507151522 | 16 | 346 | 1.6 | 4.8 | 0.00 | 0.00 | 0.00 | 87 | 1017.0 |
| 20260507151008 | 16 | 346 | 1.6 | 4.8 | 0.00 | 0.00 | 0.00 | 87 | 1017.0 |
| 20260507150508 | 16 | 346 | 1.6 | 4.8 | 0.00 | 0.00 | 0.00 | 88 | 1017.1 |
| 20260507150022 | 16 | 215 | 0.0 | 6.4 | 0.00 | 0.00 | 0.00 | 88 | 1017.0 |
| 20260507145505 | 16 | 240 | 1.6 | 6.4 | 0.00 | 0.00 | 0.00 | 88 | 1017.0 |
| 20260507145007 | 16 | 233 | 1.6 | 6.4 | 0.00 | 0.00 | 0.00 | 88 | 1017.0 |
| 20260507144503 | 16 | 244 | 0.0 | 3.2 | 0.00 | 0.00 | 0.00 | 88 | 1017.0 |
| 20260507144005 | 16 | 282 | 0.0 | 3.2 | 0.00 | 0.00 | 0.00 | 89 | 1017.0 |
| 20260507143503 | 15 | 342 | 0.0 | 3.2 | 0.00 | 0.00 | 0.00 | 88 | 1017.0 |
| 20260507143006 | 15 | 342 | 1.6 | 3.2 | 0.00 | 0.00 | 0.00 | 88 | 1016.8 |
| 20260507142509 | 15 | 342 | 0.0 | 3.2 | 0.00 | 0.00 | 0.00 | 89 | 1016.8 |
| 20260507142004 | 15 | 342 | 0.0 | 3.2 | 0.00 | 0.00 | 0.00 | 89 | 1016.7 |
| 20260507141504 | 15 | 342 | 0.0 | 3.2 | 0.00 | 0.00 | 0.00 | 89 | 1016.7 |
| 20260507141012 | 15 | 342 | 0.0 | 3.2 | 0.00 | 0.00 | 0.00 | 89 | 1016.7 |
| 20260507140503 | 15 | 342 | 0.0 | 3.2 | 0.00 | 0.00 | 0.00 | 89 | 1016.6 |
| 20260507140007 | 15 | 342 | 0.0 | 3.2 | 0.00 | 0.00 | 0.00 | 89 | 1016.6 |
| 20260507135507 | 15 | 342 | 0.0 | 3.2 | 0.00 | 0.00 | 0.00 | 89 | 1016.5 |
| 20260507135003 | 15 | 279 | 0.0 | 3.2 | 0.00 | 0.00 | 0.00 | 89 | 1016.5 |
| 20260507134502 | 15 | 279 | 0.0 | 3.2 | 0.00 | 0.00 | 0.00 | 89 | 1016.5 |
| 20260507134007 | 15 | 200 | 0.0 | 3.2 | 0.00 | 0.00 | 0.00 | 89 | 1016.4 |
| 20260507133505 | 15 | 200 | 0.0 | 3.2 | 0.00 | 0.00 | 0.00 | 89 | 1016.4 |
| 20260507133007 | 15 | 340 | 0.0 | 1.6 | 0.00 | 0.00 | 0.00 | 89 | 1016.3 |
| 20260507132505 | 15 | 340 | 0.0 | 1.6 | 0.00 | 0.00 | 0.00 | 89 | 1016.4 |
| 20260507132007 | 15 | 340 | 0.0 | 0.0 | 0.00 | 0.00 | 0.00 | 89 | 1016.3 |
| 20260507131504 | 15 | 340 | 0.0 | 1.6 | 0.00 | 0.00 | 0.00 | 89 | 1016.4 |
| 20260507131007 | 15 | 340 | 0.0 | 1.6 | 0.00 | 0.00 | 0.00 | 89 | 1016.4 |
| 20260507130503 | 15 | 340 | 0.0 | 0.0 | 0.00 | 0.00 | 0.00 | 89 | 1016.4 |
| 20260507130010 | 15 | 340 | 0.0 | 0.0 | 0.00 | 0.00 | 0.00 | 89 | 1016.4 |
| 20260507125510 | 15 | 340 | 0.0 | 0.0 | 0.00 | 0.00 | 0.00 | 89 | 1016.2 |
| 20260507125004 | 15 | 340 | 0.0 | 1.6 | 0.00 | 0.00 | 0.00 | 89 | 1016.3 |
| 20260507124503 | 15 | 340 | 0.0 | 1.6 | 0.00 | 0.00 | 0.00 | 89 | 1016.3 |
| 20260507124007 | 15 | 340 | 0.0 | 1.6 | 0.00 | 0.00 | 0.00 | 89 | 1016.2 |
| 20260507123511 | 15 | 340 | 0.0 | 3.2 | 0.00 | 0.00 | 0.00 | 89 | 1016.2 |
| 20260507123003 | 15 | 340 | 0.0 | 3.2 | 0.00 | 0.00 | 0.00 | 89 | 1016.1 |
| 20260507122507 | 15 | 340 | 0.0 | 3.2 | 0.00 | 0.00 | 0.00 | 89 | 1016.1 |
| 20260507122006 | 15 | 340 | 0.0 | 3.2 | 0.00 | 0.00 | 0.00 | 89 | 1016.2 |
| 20260507121503 | 15 | 340 | 0.0 | 3.2 | 0.00 | 0.00 | 0.00 | 89 | 1016.2 |
| 20260507121009 | 15 | 340 | 0.0 | 3.2 | 0.00 | 0.00 | 0.00 | 89 | 1016.2 |
| 20260507120502 | 15 | 340 | 1.6 | 3.2 | 0.00 | 0.00 | 0.00 | 89 | 1016.1 |
| 20260507120010 | 15 | 340 | 0.0 | 1.6 | 0.00 | 0.00 | 0.00 | 89 | 1016.1 |
| 20260507115508 | 15 | 340 | 0.0 | 4.8 | 0.00 | 0.00 | 0.00 | 89 | 1016.1 |
| 20260507115011 | 15 | 340 | 0.0 | 4.8 | 0.00 | 0.00 | 0.00 | 89 | 1016.1 |
| 20260507114504 | 15 | 340 | 0.0 | 3.2 | 0.00 | 0.00 | 0.00 | 89 | 1016.1 |
| 20260507114007 | 15 | 340 | 0.0 | 3.2 | 0.00 | 0.00 | 0.00 | 89 | 1016.2 |
| 20260507113504 | 15 | 340 | 0.0 | 1.6 | 0.00 | 0.00 | 0.00 | 89 | 1016.2 |
| 20260507113027 | 15 | 340 | 0.0 | 1.6 | 0.00 | 0.00 | 0.00 | 89 | 1016.1 |
| 20260507112511 | 15 | 340 | 0.0 | 0.0 | 0.00 | 0.00 | 0.00 | 89 | 1016.2 |
| 20260507112004 | 15 | 340 | 0.0 | 1.6 | 0.00 | 0.00 | 0.00 | 89 | 1016.2 |
| 20260507111523 | 15 | 340 | 0.0 | 1.6 | 0.00 | 0.00 | 0.00 | 89 | 1016.2 |
| 20260507111006 | 15 | 340 | 0.0 | 3.2 | 0.00 | 0.00 | 0.00 | 89 | 1016.3 |
| 20260507110503 | 15 | 340 | 0.0 | 3.2 | 0.00 | 0.00 | 0.00 | 89 | 1016.2 |
| 20260507110030 | 15 | 340 | 1.6 | 3.2 | 0.00 | 0.00 | 0.00 | 89 | 1016.2 |
| 20260507105506 | 15 | 340 | 0.0 | 3.2 | 0.00 | 0.00 | 0.00 | 89 | 1016.3 |
| 20260507105004 | 15 | 335 | 1.6 | 3.2 | 0.00 | 0.00 | 0.00 | 89 | 1016.3 |
| 20260507104524 | 15 | 335 | 1.6 | 4.8 | 0.00 | 0.00 | 0.00 | 89 | 1016.4 |
| 20260507104008 | 15 | 335 | 1.6 | 4.8 | 0.00 | 0.00 | 0.00 | 89 | 1016.3 |
| 20260507103504 | 15 | 313 | 1.6 | 4.8 | 0.00 | 0.00 | 0.00 | 89 | 1016.4 |
| 20260507103025 | 15 | 318 | 1.6 | 4.8 | 0.00 | 0.00 | 0.00 | 89 | 1016.5 |
| 20260507102504 | 15 | 339 | 0.0 | 8.0 | 0.00 | 0.00 | 0.00 | 89 | 1016.5 |
| 20260507102006 | 15 | 339 | 1.6 | 8.0 | 0.00 | 0.00 | 0.00 | 89 | 1016.5 |
| 20260507101522 | 15 | 325 | 0.0 | 3.2 | 0.00 | 0.00 | 0.00 | 89 | 1016.5 |
| 20260507101008 | 15 | 344 | 0.0 | 0.0 | 0.00 | 0.00 | 0.00 | 89 | 1016.5 |
| 20260507100504 | 15 | 344 | 0.0 | 0.0 | 0.00 | 0.00 | 0.00 | 89 | 1016.6 |
| 20260507100024 | 15 | 344 | 0.0 | 1.6 | 0.00 | 0.00 | 0.00 | 89 | 1016.6 |
| 20260507095506 | 15 | 344 | 0.0 | 3.2 | 0.00 | 0.00 | 0.00 | 89 | 1016.7 |
| 20260507095004 | 15 | 344 | 0.0 | 3.2 | 0.00 | 0.00 | 0.00 | 89 | 1016.7 |
| 20260507094525 | 15 | 344 | 0.0 | 4.8 | 0.00 | 0.00 | 0.00 | 89 | 1016.8 |
| 20260507094006 | 15 | 344 | 0.0 | 4.8 | 0.00 | 0.00 | 0.00 | 89 | 1016.7 |
| 20260507093503 | 15 | 344 | 0.0 | 4.8 | 0.00 | 0.00 | 0.00 | 89 | 1016.8 |
| 20260507093022 | 15 | 344 | 1.6 | 6.4 | 0.00 | 0.00 | 0.00 | 89 | 1016.8 |
| 20260507092512 | 15 | 342 | 1.6 | 6.4 | 0.00 | 0.00 | 0.00 | 89 | 1016.8 |
| 20260507092004 | 15 | 297 | 3.2 | 6.4 | 0.00 | 0.00 | 0.00 | 89 | 1016.8 |
| 20260507091524 | 15 | 311 | 0.0 | 4.8 | 0.00 | 0.00 | 0.00 | 89 | 1016.8 |
| 20260507091007 | 15 | 311 | 1.6 | 4.8 | 0.00 | 0.00 | 0.00 | 89 | 1016.9 |
| 20260507090503 | 15 | 311 | 0.0 | 4.8 | 0.00 | 0.00 | 0.00 | 89 | 1017.0 |
| 20260507090024 | 15 | 311 | 1.6 | 4.8 | 0.00 | 0.00 | 0.00 | 89 | 1017.0 |
| 20260507085507 | 15 | 327 | 1.6 | 4.8 | 0.00 | 0.00 | 0.00 | 88 | 1017.1 |
| 20260507085003 | 15 | 339 | 1.6 | 9.7 | 0.00 | 0.00 | 0.00 | 88 | 1017.2 |
| 20260507084524 | 15 | 330 | 4.8 | 9.7 | 0.00 | 0.00 | 0.00 | 88 | 1017.2 |
| 20260507084007 | 15 | 339 | 0.0 | 4.8 | 0.00 | 0.00 | 0.00 | 88 | 1017.2 |
| 20260507083503 | 15 | 330 | 3.2 | 4.8 | 0.00 | 0.00 | 0.00 | 88 | 1017.2 |
| 20260507083028 | 15 | 311 | 0.0 | 4.8 | 0.00 | 0.00 | 0.00 | 88 | 1017.2 |
| 20260507082507 | 15 | 311 | 0.0 | 4.8 | 0.00 | 0.00 | 0.00 | 88 | 1017.3 |
| 20260507082002 | 15 | 304 | 1.6 | 4.8 | 0.00 | 0.00 | 0.00 | 88 | 1017.4 |
| 20260507081533 | 15 | 309 | 1.6 | 4.8 | 0.00 | 0.00 | 0.00 | 88 | 1017.4 |
| 20260507081009 | 15 | 341 | 0.0 | 4.8 | 0.00 | 0.00 | 0.00 | 88 | 1017.5 |
| 20260507080511 | 15 | 325 | 1.6 | 4.8 | 0.00 | 0.00 | 0.00 | 88 | 1017.5 |
| 20260507080005 | 15 | 325 | 1.6 | 4.8 | 0.00 | 0.00 | 0.00 | 88 | 1017.5 |
| 20260507075502 | 15 | 309 | 1.6 | 4.8 | 0.00 | 0.00 | 0.00 | 88 | 1017.6 |
| 20260507075006 | 15 | 328 | 1.6 | 4.8 | 0.00 | 0.00 | 0.00 | 88 | 1017.5 |
| 20260507074503 | 15 | 313 | 0.0 | 8.0 | 0.00 | 0.00 | 0.00 | 88 | 1017.6 |
| 20260507074004 | 15 | 323 | 1.6 | 8.0 | 0.00 | 0.00 | 0.00 | 88 | 1017.6 |
| 20260507073503 | 15 | 316 | 3.2 | 6.4 | 0.00 | 0.00 | 0.00 | 87 | 1017.5 |
| 20260507073004 | 15 | 329 | 3.2 | 6.4 | 0.00 | 0.00 | 0.00 | 87 | 1017.6 |
| 20260507072503 | 15 | 338 | 1.6 | 6.4 | 0.00 | 0.00 | 0.00 | 87 | 1017.7 |
| 20260507072004 | 15 | 332 | 4.8 | 6.4 | 0.00 | 0.00 | 0.00 | 87 | 1017.6 |
| 20260507071505 | 15 | 313 | 3.2 | 6.4 | 0.00 | 0.00 | 0.00 | 87 | 1017.6 |
| 20260507071004 | 15 | 299 | 3.2 | 6.4 | 0.00 | 0.00 | 0.00 | 87 | 1017.6 |
| 20260507070507 | 15 | 292 | 3.2 | 6.4 | 0.00 | 0.00 | 0.00 | 87 | 1017.6 |
| 20260507070009 | 15 | 294 | 1.6 | 6.4 | 0.00 | 0.00 | 0.00 | 87 | 1017.7 |
| 20260507065509 | 15 | 312 | 1.6 | 6.4 | 0.00 | 0.00 | 0.00 | 87 | 1017.7 |
| 20260507065002 | 15 | 305 | 1.6 | 6.4 | 0.00 | 0.00 | 0.00 | 88 | 1017.7 |
| 20260507064502 | 15 | 299 | 1.6 | 6.4 | 0.00 | 0.00 | 0.00 | 88 | 1017.7 |
| 20260507064003 | 15 | 316 | 1.6 | 6.4 | 0.00 | 0.00 | 0.00 | 88 | 1017.8 |
| 20260507063505 | 15 | 313 | 1.6 | 8.0 | 0.00 | 0.00 | 0.00 | 88 | 1017.9 |
| 20260507063004 | 15 | 331 | 1.6 | 8.0 | 0.00 | 0.00 | 0.00 | 88 | 1017.9 |
| 20260507062503 | 15 | 303 | 3.2 | 6.4 | 0.00 | 0.00 | 0.00 | 88 | 1017.8 |
| 20260507062006 | 15 | 329 | 3.2 | 8.0 | 0.00 | 0.00 | 0.00 | 89 | 1017.8 |
| 20260507061506 | 15 | 323 | 3.2 | 8.0 | 0.00 | 0.00 | 0.00 | 89 | 1017.8 |
| 20260507061004 | 15 | 306 | 3.2 | 8.0 | 0.00 | 0.00 | 0.00 | 89 | 1017.8 |
| 20260507060503 | 15 | 317 | 1.6 | 8.0 | 0.00 | 0.00 | 0.00 | 89 | 1017.8 |
| 20260507060004 | 15 | 311 | 1.6 | 8.0 | 0.00 | 0.00 | 0.00 | 89 | 1017.8 |
| 20260507055507 | 15 | 342 | 4.8 | 8.0 | 0.00 | 0.00 | 0.00 | 89 | 1017.8 |
| 20260507055003 | 15 | 349 | 4.8 | 8.0 | 0.00 | 0.00 | 0.00 | 89 | 1017.8 |
| 20260507054504 | 15 | 349 | 1.6 | 4.8 | 0.00 | 0.00 | 0.00 | 89 | 1017.8 |
| 20260507054009 | 15 | 349 | 1.6 | 4.8 | 0.00 | 0.00 | 0.00 | 89 | 1017.7 |
| 20260507053509 | 15 | 349 | 0.0 | 3.2 | 0.00 | 0.00 | 0.00 | 89 | 1017.8 |
| 20260507053003 | 15 | 349 | 0.0 | 8.0 | 0.00 | 0.00 | 0.00 | 89 | 1017.8 |
| 20260507052503 | 15 | 349 | 1.6 | 8.0 | 0.00 | 0.00 | 0.00 | 89 | 1017.8 |
| 20260507052004 | 15 | 349 | 3.2 | 9.7 | 0.00 | 0.00 | 0.00 | 89 | 1017.8 |
| 20260507051503 | 15 | 349 | 4.8 | 11.3 | 0.00 | 0.00 | 0.00 | 89 | 1017.7 |
| 20260507051004 | 15 | 348 | 6.4 | 11.3 | 0.00 | 0.00 | 0.00 | 89 | 1017.7 |
| 20260507050506 | 15 | 349 | 6.4 | 11.3 | 0.00 | 0.00 | 0.00 | 89 | 1017.7 |
| 20260507050008 | 15 | 351 | 6.4 | 11.3 | 0.00 | 0.00 | 0.00 | 89 | 1017.8 |
| 20260507045510 | 15 | 352 | 6.4 | 11.3 | 0.00 | 0.00 | 0.00 | 89 | 1017.8 |
| 20260507045004 | 15 | 346 | 6.4 | 11.3 | 0.00 | 0.00 | 0.00 | 89 | 1017.8 |
| 20260507044504 | 15 | 348 | 6.4 | 11.3 | 0.00 | 0.00 | 0.00 | 89 | 1017.7 |
| 20260507044006 | 15 | 348 | 4.8 | 9.7 | 0.00 | 0.00 | 0.00 | 89 | 1017.7 |
| 20260507043502 | 15 | 348 | 4.8 | 9.7 | 0.00 | 0.00 | 0.00 | 89 | 1017.7 |
| 20260507043004 | 16 | 348 | 3.2 | 9.7 | 0.00 | 0.00 | 0.00 | 89 | 1017.6 |
| 20260507042507 | 15 | 348 | 6.4 | 9.7 | 0.00 | 0.00 | 0.00 | 89 | 1017.6 |
| 20260507042003 | 16 | 347 | 3.2 | 11.3 | 0.00 | 0.00 | 0.00 | 89 | 1017.6 |
| 20260507041532 | 16 | 346 | 6.4 | 11.3 | 0.00 | 0.00 | 0.00 | 88 | 1017.6 |
| 20260507041007 | 16 | 346 | 4.8 | 9.7 | 0.00 | 0.00 | 0.00 | 88 | 1017.6 |
| 20260507040506 | 16 | 342 | 4.8 | 9.7 | 0.00 | 0.00 | 0.00 | 88 | 1017.5 |
| 20260507040013 | 16 | 345 | 4.8 | 8.0 | 0.00 | 0.00 | 0.00 | 88 | 1017.5 |
| 20260507035506 | 16 | 342 | 4.8 | 9.7 | 0.00 | 0.00 | 0.00 | 87 | 1017.5 |
| 20260507035005 | 16 | 344 | 4.8 | 9.7 | 0.00 | 0.00 | 0.00 | 87 | 1017.5 |
| 20260507034516 | 16 | 337 | 3.2 | 8.0 | 0.00 | 0.00 | 0.00 | 87 | 1017.5 |
| 20260507034006 | 16 | 301 | 3.2 | 9.7 | 0.00 | 0.00 | 0.00 | 87 | 1017.4 |
| 20260507033503 | 16 | 308 | 4.8 | 9.7 | 0.00 | 0.00 | 0.00 | 87 | 1017.3 |
| 20260507033016 | 16 | 306 | 4.8 | 8.0 | 0.00 | 0.00 | 0.00 | 87 | 1017.3 |
| 20260507032507 | 16 | 321 | 3.2 | 8.0 | 0.00 | 0.00 | 0.00 | 86 | 1017.3 |
| 20260507032005 | 16 | 278 | 3.2 | 8.0 | 0.00 | 0.00 | 0.00 | 86 | 1017.3 |
| 20260507031519 | 16 | 305 | 4.8 | 8.0 | 0.00 | 0.00 | 0.00 | 86 | 1017.2 |
| 20260507031008 | 16 | 316 | 3.2 | 8.0 | 0.00 | 0.00 | 0.00 | 86 | 1017.1 |
| 20260507030502 | 16 | 277 | 3.2 | 9.7 | 0.00 | 0.00 | 0.00 | 86 | 1017.1 |
| 20260507030016 | 16 | 325 | 4.8 | 12.9 | 0.00 | 0.00 | 0.00 | 85 | 1017.1 |
| 20260507025508 | 16 | 321 | 3.2 | 12.9 | 0.00 | 0.00 | 0.00 | 85 | 1017.0 |
| 20260507025002 | 16 | 346 | 8.0 | 12.9 | 0.00 | 0.00 | 0.00 | 85 | 1016.8 |
| 20260507024519 | 16 | 321 | 4.8 | 9.7 | 0.00 | 0.00 | 0.00 | 85 | 1016.7 |
| 20260507024011 | 16 | 338 | 4.8 | 11.3 | 0.00 | 0.00 | 0.00 | 84 | 1016.7 |
| 20260507023502 | 16 | 302 | 4.8 | 11.3 | 0.00 | 0.00 | 0.00 | 84 | 1016.7 |
| 20260507023020 | 16 | 323 | 4.8 | 11.3 | 0.00 | 0.00 | 0.00 | 84 | 1016.7 |
| 20260507022509 | 16 | 296 | 3.2 | 12.9 | 0.00 | 0.00 | 0.00 | 83 | 1016.7 |
| 20260507022003 | 16 | 333 | 4.8 | 14.5 | 0.00 | 0.00 | 0.00 | 83 | 1016.8 |
| 20260507021521 | 17 | 346 | 9.7 | 14.5 | 0.00 | 0.00 | 0.00 | 83 | 1016.7 |
| 20260507021007 | 17 | 344 | 4.8 | 14.5 | 0.00 | 0.00 | 0.00 | 82 | 1016.6 |
| 20260507020506 | 17 | 342 | 4.8 | 12.9 | 0.00 | 0.00 | 0.00 | 82 | 1016.6 |
| 20260507020020 | 17 | 336 | 4.8 | 16.1 | 0.00 | 0.00 | 0.00 | 81 | 1016.6 |
| 20260507015506 | 17 | 344 | 8.0 | 16.1 | 0.00 | 0.00 | 0.00 | 81 | 1016.5 |
| 20260507015002 | 17 | 346 | 4.8 | 11.3 | 0.00 | 0.00 | 0.00 | 81 | 1016.5 |
| 20260507014530 | 17 | 323 | 6.4 | 11.3 | 0.00 | 0.00 | 0.00 | 80 | 1016.6 |
| 20260507014006 | 17 | 313 | 6.4 | 11.3 | 0.00 | 0.00 | 0.00 | 80 | 1016.6 |
| 20260507013501 | 18 | 131 | 4.8 | 12.9 | 0.00 | 0.00 | 0.00 | 79 | 1016.5 |
| 20260507013035 | 18 | 326 | 4.8 | 12.9 | 0.00 | 0.00 | 0.00 | 79 | 1016.5 |
| 20260507012506 | 18 | 320 | 3.2 | 9.7 | 0.00 | 0.00 | 0.00 | 79 | 1016.5 |
| 20260507012003 | 18 | 332 | 4.8 | 11.3 | 0.00 | 0.00 | 0.00 | 78 | 1016.6 |
| 20260507011503 | 18 | 319 | 4.8 | 11.3 | 0.00 | 0.00 | 0.00 | 78 | 1016.6 |
| 20260507011001 | 18 | 308 | 3.2 | 14.5 | 0.00 | 0.00 | 0.00 | 79 | 1016.6 |
| 20260507010504 | 18 | 338 | 4.8 | 16.1 | 0.00 | 0.00 | 0.00 | 78 | 1016.6 |
| 20260507010024 | 18 | 292 | 8.0 | 16.1 | 0.00 | 0.00 | 0.00 | 78 | 1016.5 |
| 20260507005502 | 18 | 8 | 4.8 | 12.9 | 0.00 | 0.00 | 0.00 | 78 | 1016.5 |
| 20260507005004 | 18 | 290 | 4.8 | 16.1 | 0.00 | 0.00 | 0.00 | 78 | 1016.5 |
| 20260507004502 | 18 | 249 | 8.0 | 16.1 | 0.00 | 0.00 | 0.00 | 77 | 1016.4 |
| 20260507004002 | 18 | 247 | 9.7 | 16.1 | 0.00 | 0.00 | 0.00 | 77 | 1016.4 |
| 20260507003503 | 18 | 283 | 8.0 | 17.7 | 0.00 | 0.00 | 0.00 | 77 | 1016.4 |
| 20260507003002 | 18 | 272 | 8.0 | 17.7 | 0.00 | 0.00 | 0.00 | 76 | 1016.4 |
| 20260507002502 | 19 | 275 | 8.0 | 17.7 | 0.00 | 0.00 | 0.00 | 76 | 1016.4 |
| 20260507002004 | 19 | 283 | 9.7 | 17.7 | 0.00 | 0.00 | 0.00 | 76 | 1016.3 |
| 20260507001503 | 19 | 275 | 8.0 | 16.1 | 0.00 | 0.00 | 0.00 | 76 | 1016.3 |
| 20260507001006 | 19 | 251 | 6.4 | 17.7 | 0.00 | 0.00 | 0.00 | 75 | 1016.2 |
| 20260507000506 | 19 | 328 | 4.8 | 17.7 | 0.00 | 0.00 | 0.00 | 75 | 1016.2 |
| 20260507000012 | 19 | 256 | 4.8 | 17.7 | 0.00 | 0.00 | 0.00 | 76 | 1016.2 |
| 20260506235504 | 19 | 271 | 6.4 | 17.7 | 0.00 | 0.00 | 0.00 | 75 | 1016.2 |
| 20260506235005 | 19 | 240 | 9.7 | 17.7 | 0.00 | 0.00 | 0.00 | 74 | 1016.1 |
| 20260506234504 | 19 | 275 | 8.0 | 17.7 | 0.00 | 0.00 | 0.00 | 75 | 1016.2 |
| 20260506234007 | 19 | 278 | 8.0 | 17.7 | 0.00 | 0.00 | 0.00 | 74 | 1016.2 |
| 20260506233506 | 20 | 271 | 8.0 | 17.7 | 0.00 | 0.00 | 0.00 | 74 | 1016.2 |
| 20260506233004 | 20 | 262 | 8.0 | 16.1 | 0.00 | 0.00 | 0.00 | 74 | 1016.2 |
| 20260506232506 | 20 | 278 | 6.4 | 16.1 | 0.00 | 0.00 | 0.00 | 74 | 1016.2 |
| 20260506232003 | 20 | 299 | 8.0 | 16.1 | 0.00 | 0.00 | 0.00 | 73 | 1016.2 |
| 20260506231503 | 20 | 313 | 4.8 | 16.1 | 0.00 | 0.00 | 0.00 | 73 | 1016.3 |
| 20260506231007 | 20 | 301 | 4.8 | 17.7 | 0.00 | 0.00 | 0.00 | 73 | 1016.5 |
| 20260506230504 | 20 | 279 | 8.0 | 19.3 | 0.00 | 0.00 | 0.00 | 72 | 1016.4 |
| 20260506230004 | 20 | 306 | 4.8 | 19.3 | 0.00 | 0.00 | 0.00 | 72 | 1016.4 |
| 20260506225509 | 20 | 230 | 6.4 | 17.7 | 0.00 | 0.00 | 0.00 | 71 | 1016.5 |
| 20260506225003 | 20 | 356 | 6.4 | 20.9 | 0.00 | 0.00 | 0.00 | 72 | 1016.5 |
| 20260506224503 | 20 | 282 | 6.4 | 20.9 | 0.00 | 0.00 | 0.00 | 72 | 1016.6 |
| 20260506224004 | 20 | 294 | 4.8 | 16.1 | 0.00 | 0.00 | 0.00 | 72 | 1016.7 |
| 20260506223503 | 20 | 263 | 6.4 | 19.3 | 0.00 | 0.00 | 0.00 | 71 | 1016.7 |
| 20260506223005 | 20 | 328 | 6.4 | 19.3 | 0.00 | 0.00 | 0.00 | 72 | 1016.7 |
| 20260506222507 | 20 | 292 | 8.0 | 17.7 | 0.00 | 0.00 | 0.00 | 72 | 1016.6 |
| 20260506222004 | 20 | 287 | 9.7 | 20.9 | 0.00 | 0.00 | 0.00 | 72 | 1016.7 |
| 20260506221504 | 20 | 282 | 8.0 | 20.9 | 0.00 | 0.00 | 0.00 | 70 | 1016.9 |
| 20260506221009 | 20 | 285 | 8.0 | 19.3 | 0.00 | 0.00 | 0.00 | 71 | 1016.8 |
| 20260506220503 | 20 | 261 | 8.0 | 19.3 | 0.00 | 0.00 | 0.00 | 71 | 1017.0 |
| 20260506220004 | 20 | 292 | 9.7 | 19.3 | 0.00 | 0.00 | 0.00 | 71 | 1017.0 |
| 20260506215512 | 20 | 268 | 8.0 | 22.5 | 0.00 | 0.00 | 0.00 | 71 | 1017.1 |
| 20260506215006 | 20 | 293 | 8.0 | 22.5 | 0.00 | 0.00 | 0.00 | 71 | 1017.2 |
| 20260506214503 | 20 | 278 | 11.3 | 25.7 | 0.00 | 0.00 | 0.00 | 71 | 1017.1 |
| 20260506214008 | 20 | 264 | 8.0 | 25.7 | 0.00 | 0.00 | 0.00 | 71 | 1017.1 |
| 20260506213504 | 20 | 325 | 8.0 | 20.9 | 0.00 | 0.00 | 0.00 | 72 | 1017.1 |
| 20260506213003 | 20 | 338 | 11.3 | 24.1 | 0.00 | 0.00 | 0.00 | 71 | 1017.2 |
| 20260506212509 | 20 | 261 | 14.5 | 24.1 | 0.00 | 0.00 | 0.00 | 70 | 1017.2 |
| 20260506212004 | 20 | 269 | 12.9 | 22.5 | 0.00 | 0.00 | 0.00 | 70 | 1017.2 |
| 20260506211503 | 20 | 281 | 9.7 | 25.7 | 0.00 | 0.00 | 0.00 | 70 | 1017.3 |
| 20260506211005 | 20 | 262 | 11.3 | 25.7 | 0.00 | 0.00 | 0.00 | 69 | 1017.3 |
| 20260506210505 | 20 | 318 | 8.0 | 24.1 | 0.00 | 0.00 | 0.00 | 69 | 1017.3 |
| 20260506210003 | 20 | 298 | 11.3 | 24.1 | 0.00 | 0.00 | 0.00 | 68 | 1017.3 |
| 20260506205506 | 20 | 315 | 8.0 | 20.9 | 0.00 | 0.00 | 0.00 | 68 | 1017.4 |
| 20260506205004 | 20 | 252 | 9.7 | 20.9 | 0.00 | 0.00 | 0.00 | 67 | 1017.4 |
| 20260506204520 | 21 | 272 | 4.8 | 17.7 | 0.00 | 0.00 | 0.00 | 68 | 1017.4 |
| 20260506204007 | 21 | 275 | 8.0 | 17.7 | 0.00 | 0.00 | 0.00 | 67 | 1017.4 |
| 20260506203503 | 21 | 125 | 6.4 | 17.7 | 0.00 | 0.00 | 0.00 | 67 | 1017.5 |
| 20260506203022 | 21 | 272 | 4.8 | 17.7 | 0.00 | 0.00 | 0.00 | 66 | 1017.6 |
| 20260506202508 | 21 | 287 | 6.4 | 22.5 | 0.00 | 0.00 | 0.00 | 67 | 1017.6 |
| 20260506202006 | 21 | 342 | 4.8 | 22.5 | 0.00 | 0.00 | 0.00 | 66 | 1017.6 |
| 20260506201522 | 21 | 293 | 6.4 | 20.9 | 0.00 | 0.00 | 0.00 | 67 | 1017.6 |
| 20260506201004 | 21 | 292 | 9.7 | 20.9 | 0.00 | 0.00 | 0.00 | 65 | 1017.7 |
| 20260506200504 | 21 | 242 | 8.0 | 14.5 | 0.00 | 0.00 | 0.00 | 65 | 1017.7 |
| 20260506200022 | 21 | 216 | 4.8 | 14.5 | 0.00 | 0.00 | 0.00 | 65 | 1017.8 |
| 20260506195508 | 21 | 233 | 8.0 | 12.9 | 0.00 | 0.00 | 0.00 | 65 | 1017.9 |
| 20260506195004 | 21 | 212 | 4.8 | 17.7 | 0.00 | 0.00 | 0.00 | 65 | 1018.0 |
| 20260506194522 | 21 | 238 | 8.0 | 17.7 | 0.00 | 0.00 | 0.00 | 65 | 1018.1 |
| 20260506194009 | 21 | 236 | 8.0 | 12.9 | 0.00 | 0.00 | 0.00 | 65 | 1018.1 |
| 20260506193506 | 21 | 243 | 6.4 | 14.5 | 0.00 | 0.00 | 0.00 | 65 | 1018.1 |
| 20260506193022 | 21 | 125 | 6.4 | 14.5 | 0.00 | 0.00 | 0.00 | 65 | 1018.1 |
| 20260506192509 | 21 | 244 | 8.0 | 12.9 | 0.00 | 0.00 | 0.00 | 64 | 1018.1 |
| 20260506192004 | 21 | 216 | 6.4 | 12.9 | 0.00 | 0.00 | 0.00 | 64 | 1018.1 |
| 20260506191520 | 21 | 225 | 4.8 | 12.9 | 0.00 | 0.00 | 0.00 | 65 | 1018.2 |
| 20260506191007 | 21 | 227 | 4.8 | 12.9 | 0.00 | 0.00 | 0.00 | 66 | 1018.3 |
| 20260506190504 | 21 | 240 | 4.8 | 16.1 | 0.00 | 0.00 | 0.00 | 66 | 1018.3 |
| 20260506190024 | 21 | 239 | 6.4 | 16.1 | 0.00 | 0.00 | 0.00 | 66 | 1018.3 |
| 20260506185506 | 20 | 224 | 4.8 | 14.5 | 0.00 | 0.00 | 0.00 | 68 | 1018.3 |
| 20260506185003 | 20 | 230 | 3.2 | 11.3 | 0.00 | 0.00 | 0.00 | 68 | 1018.4 |
| 20260506184520 | 20 | 226 | 4.8 | 11.3 | 0.00 | 0.00 | 0.00 | 68 | 1018.4 |
| 20260506184007 | 20 | 219 | 4.8 | 11.3 | 0.00 | 0.00 | 0.00 | 68 | 1018.4 |
| 20260506183503 | 20 | 125 | 3.2 | 14.5 | 0.00 | 0.00 | 0.00 | 68 | 1018.5 |
| 20260506183024 | 20 | 259 | 6.4 | 14.5 | 0.00 | 0.00 | 0.00 | 68 | 1018.5 |
| 20260506182506 | 20 | 268 | 6.4 | 11.3 | 0.00 | 0.00 | 0.00 | 69 | 1018.5 |
| 20260506182002 | 19 | 233 | 6.4 | 11.3 | 0.00 | 0.00 | 0.00 | 69 | 1018.5 |
| 20260506181529 | 19 | 249 | 4.8 | 12.9 | 0.00 | 0.00 | 0.00 | 69 | 1018.5 |
| 20260506181007 | 19 | 273 | 4.8 | 12.9 | 0.00 | 0.00 | 0.00 | 69 | 1018.5 |
| 20260506180503 | 19 | 181 | 4.8 | 11.3 | 0.00 | 0.00 | 0.00 | 69 | 1018.6 |
| 20260506180032 | 19 | 125 | 4.8 | 9.7 | 0.00 | 0.00 | 0.00 | 70 | 1018.6 |
| 20260506175511 | 19 | 268 | 4.8 | 12.9 | 0.00 | 0.00 | 0.00 | 71 | 1018.6 |
| 20260506175006 | 18 | 284 | 6.4 | 14.5 | 0.00 | 0.00 | 0.00 | 70 | 1018.6 |
| 20260506174519 | 18 | 285 | 8.0 | 14.5 | 0.00 | 0.00 | 0.00 | 70 | 1018.6 |
| 20260506174009 | 18 | 234 | 3.2 | 11.3 | 0.00 | 0.00 | 0.00 | 71 | 1018.7 |
| 20260506173504 | 18 | 247 | 4.8 | 11.3 | 0.00 | 0.00 | 0.00 | 71 | 1018.7 |
| 20260506173021 | 18 | 256 | 6.4 | 11.3 | 0.00 | 0.00 | 0.00 | 71 | 1018.9 |
| 20260506172507 | 18 | 338 | 6.4 | 12.9 | 0.00 | 0.00 | 0.00 | 72 | 1018.9 |
| 20260506172003 | 18 | 301 | 6.4 | 12.9 | 0.00 | 0.00 | 0.00 | 71 | 1018.9 |
| 20260506171536 | 18 | 255 | 6.4 | 12.9 | 0.00 | 0.00 | 0.00 | 72 | 1018.9 |
| 20260506171008 | 18 | 268 | 6.4 | 12.9 | 0.00 | 0.00 | 0.00 | 72 | 1018.9 |
| 20260506170509 | 18 | 256 | 6.4 | 12.9 | 0.00 | 0.00 | 0.00 | 72 | 1018.9 |
| 20260506170019 | 18 | 261 | 6.4 | 12.9 | 0.00 | 0.00 | 0.00 | 72 | 1018.9 |
| 20260506165506 | 18 | 273 | 3.2 | 12.9 | 0.00 | 0.00 | 0.00 | 72 | 1018.9 |
| 20260506165008 | 18 | 241 | 4.8 | 14.5 | 0.00 | 0.00 | 0.00 | 72 | 1018.9 |
| 20260506164521 | 18 | 358 | 6.4 | 14.5 | 0.00 | 0.00 | 0.00 | 73 | 1018.9 |
| 20260506164007 | 17 | 345 | 4.8 | 12.9 | 0.00 | 0.00 | 0.00 | 73 | 1018.8 |
| 20260506163511 | 17 | 304 | 4.8 | 12.9 | 0.00 | 0.00 | 0.00 | 73 | 1018.8 |
| 20260506163025 | 17 | 8 | 6.4 | 11.3 | 0.00 | 0.00 | 0.00 | 74 | 1018.8 |
| 20260506162503 | 17 | 347 | 3.2 | 11.3 | 0.00 | 0.00 | 0.00 | 75 | 1018.8 |
| 20260506162005 | 17 | 343 | 1.6 | 14.5 | 0.00 | 0.00 | 0.00 | 75 | 1018.8 |
| 20260506161503 | 17 | 306 | 6.4 | 14.5 | 0.00 | 0.00 | 0.00 | 75 | 1018.7 |
| 20260506161007 | 17 | 326 | 6.4 | 12.9 | 0.00 | 0.00 | 0.00 | 75 | 1018.7 |
| 20260506160505 | 16 | 321 | 4.8 | 11.3 | 0.00 | 0.00 | 0.00 | 75 | 1018.6 |